GW3934 Weather Reports


Display with metric or nautical units.
time (UTC)temp
F
wind
direction
speed
MPH
gust
MPH
rain 1hr
in
rain 24hr
in
rain mn
in
humidity
%
barometer
mb
20240220211217 35 0.0 0.0 0.00 0.01 0.01 42 1029.0
20240220210217 35 0.0 0.0 0.00 0.01 0.01 42 1029.0
20240220205217 35 0.0 0.0 0.00 0.01 0.01 41 1029.1
20240220204217 35 0.0 0.0 0.00 0.01 0.01 42 1029.2
20240220203218 35 109 0.0 1.0 0.00 0.01 0.01 42 1029.3
20240220202217 35 0.0 0.0 0.00 0.01 0.01 41 1029.3
20240220201217 35 0.0 1.0 0.00 0.01 0.01 42 1029.4
20240220200217 35 0.0 0.0 0.00 0.01 0.01 40 1029.5
20240220195237 35 0.0 0.0 0.00 0.01 0.01 40 1029.5
20240220194238 35 0.0 1.0 0.00 0.01 0.01 40 1029.5
20240220193217 35 133 0.0 1.0 0.00 0.01 0.01 41 1029.6
20240220192216 35 126 0.0 1.0 0.00 0.01 0.01 42 1029.7
20240220191241 35 62 1.0 2.0 0.00 0.01 0.01 41 1029.8
20240220190216 35 131 1.0 2.0 0.00 0.01 0.01 40 1030.0
20240220185215 35 247 0.0 1.0 0.01 0.01 0.01 41 1030.0
20240220184216 35 143 0.0 2.0 0.01 0.01 0.01 41 1030.0
20240220183216 35 0.0 2.0 0.01 0.02 0.01 40 1030.2
20240220182216 35 109 0.0 2.0 0.01 0.02 0.01 41 1030.4
20240220181215 35 0.0 1.0 0.01 0.02 0.01 40 1030.5
20240220180215 35 237 0.0 2.0 0.01 0.02 0.01 41 1030.5
20240220175215 35 114 1.0 2.0 0.00 0.01 0.00 40 1030.6
20240220174217 35 128 1.0 3.0 0.00 0.02 0.00 40 1030.7
20240220173215 35 122 0.0 1.0 0.00 0.02 0.00 39 1030.8
20240220172215 35 119 0.0 1.0 0.00 0.02 0.00 41 1030.9
20240220171216 35 104 0.0 2.0 0.00 0.03 0.00 39 1031.0
20240220170215 34 76 0.0 1.0 0.00 0.03 0.00 40 1031.2
20240220165215 33 0.0 0.0 0.00 0.03 0.00 41 1031.3
20240220164236 34 52 0.0 1.0 0.00 0.03 0.00 41 1031.4
20240220163235 33 87 0.0 1.0 0.00 0.03 0.00 42 1031.4
20240220162216 32 74 0.0 2.0 0.00 0.04 0.00 42 1031.4
20240220161215 32 48 1.0 2.0 0.00 0.04 0.00 42 1031.5
20240220160235 32 103 0.0 1.0 0.00 0.04 0.00 43 1031.5
20240220155255 32 58 1.0 2.0 0.00 0.04 0.00 43 1031.4
20240220154215 31 57 1.0 2.0 0.00 0.04 0.00 44 1031.5
20240220153215 31 0.0 1.0 0.00 0.04 0.00 44 1031.4
20240220152236 30 115 1.0 4.0 0.00 0.04 0.00 45 1031.4
20240220151215 29 0.0 2.0 0.00 0.04 0.00 46 1031.4
20240220150235 29 127 1.0 2.0 0.00 0.04 0.00 46 1031.4
20240220145215 28 72 0.0 1.0 0.00 0.04 0.00 47 1031.3
20240220144217 28 53 1.0 3.0 0.00 0.04 0.00 46 1031.2
20240220143235 28 70 0.0 1.0 0.00 0.04 0.00 46 1031.0
20240220142216 27 80 1.0 2.0 0.00 0.04 0.00 49 1030.9
20240220141215 27 106 1.0 2.0 0.00 0.04 0.00 49 1030.9
20240220140216 27 52 0.0 1.0 0.00 0.04 0.00 50 1030.9
20240220135236 26 53 1.0 2.0 0.00 0.04 0.00 50 1030.8
20240220134235 25 0.0 0.0 0.00 0.04 0.00 52 1030.7
20240220133215 24 69 0.0 5.0 0.00 0.04 0.00 51 1030.4
20240220132215 24 56 1.0 7.0 0.00 0.04 0.00 52 1030.3
20240220131216 23 85 0.0 1.0 0.00 0.04 0.00 53 1030.1
20240220130235 23 75 0.0 2.0 0.00 0.04 0.00 54 1029.9
20240220125215 22 64 1.0 6.0 0.00 0.04 0.00 54 1029.7
20240220124215 22 40 1.0 5.0 0.00 0.04 0.00 56 1029.5
20240220123215 22 76 0.0 2.0 0.00 0.04 0.00 58 1029.3
20240220122217 21 0.0 2.0 0.00 0.04 0.00 57 1029.2
20240220121218 21 61 0.0 1.0 0.00 0.04 0.00 58 1029.0
20240220120217 21 49 1.0 3.0 0.00 0.05 0.00 58 1028.8
20240220115217 21 57 0.0 3.0 0.00 0.05 0.00 59 1028.5
20240220114217 20 35 0.0 2.0 0.00 0.05 0.00 60 1028.5
20240220113217 21 0.0 2.0 0.00 0.05 0.00 59 1028.4
20240220112215 21 0.0 2.0 0.00 0.05 0.00 59 1028.3
20240220111217 21 46 1.0 3.0 0.00 0.05 0.00 58 1028.2
20240220110217 21 63 0.0 1.0 0.00 0.05 0.00 59 1028.2
20240220105216 21 45 0.0 2.0 0.00 0.05 0.00 59 1028.2
20240220104217 21 0.0 1.0 0.00 0.05 0.00 58 1028.3
20240220103217 21 51 1.0 3.0 0.00 0.05 0.00 58 1028.1
20240220102218 21 50 1.0 4.0 0.00 0.05 0.00 57 1028.0
20240220101216 22 50 0.0 3.0 0.00 0.05 0.00 57 1028.0
20240220100217 22 51 1.0 5.0 0.00 0.05 0.00 57 1027.9
20240220095216 22 48 2.0 6.0 0.00 0.05 0.00 58 1027.7
20240220094216 22 78 0.0 5.0 0.00 0.05 0.00 58 1027.6
20240220093217 22 46 1.0 3.0 0.00 0.05 0.00 59 1027.5
20240220092217 22 46 1.0 4.0 0.00 0.05 0.00 60 1027.6
20240220091217 22 50 1.0 2.0 0.00 0.05 0.00 60 1027.6
20240220090217 22 47 0.0 3.0 0.00 0.05 0.00 60 1027.5
20240220085217 22 48 0.0 2.0 0.00 0.05 0.00 60 1027.3
20240220084217 22 64 0.0 3.0 0.00 0.05 0.00 60 1027.4
20240220083217 23 50 0.0 1.0 0.00 0.05 0.00 59 1027.3
20240220082237 23 70 0.0 4.0 0.00 0.05 0.00 59 1027.3
20240220081217 23 81 0.0 2.0 0.00 0.05 0.00 59 1027.3
20240220080236 23 69 0.0 1.0 0.00 0.05 0.00 60 1027.2
20240220075217 23 31 1.0 3.0 0.00 0.05 0.00 61 1027.2
20240220074216 23 13 0.0 1.0 0.00 0.05 0.00 61 1027.3
20240220073239 24 59 0.0 2.0 0.00 0.05 0.00 60 1027.3
20240220072216 24 0.0 0.0 0.00 0.05 0.00 59 1027.3
20240220071216 24 0.0 0.0 0.00 0.05 0.00 60 1027.3
20240220070215 24 37 0.0 1.0 0.00 0.05 0.00 59 1027.2
20240220065216 24 9 0.0 1.0 0.00 0.05 0.00 59 1027.1
20240220064235 24 16 0.0 1.0 0.00 0.05 0.00 58 1027.1
20240220063215 25 0.0 0.0 0.00 0.05 0.00 58 1027.1
20240220062216 25 22 0.0 2.0 0.00 0.05 0.00 57 1027.1
20240220061215 25 10 0.0 1.0 0.00 0.05 0.00 58 1027.2
20240220060215 25 340 0.0 1.0 0.00 0.05 0.00 58 1027.1
20240220055216 25 0.0 0.0 0.00 0.05 0.00 58 1027.1
20240220054215 25 0.0 0.0 0.00 0.05 0.00 57 1027.1
20240220053215 25 360 0.0 1.0 0.00 0.05 0.00 56 1027.0
20240220052215 25 358 0.0 1.0 0.00 0.05 0.00 56 1027.0
20240220051215 26 0.0 0.0 0.00 0.05 0.00 56 1026.9
20240220050215 26 0.0 0.0 0.00 0.05 0.00 56 1026.8
20240220045215 26 354 0.0 1.0 0.00 0.05 0.05 54 1026.6
20240220044215 26 6 1.0 2.0 0.00 0.05 0.05 54 1026.5
20240220043215 26 0.0 1.0 0.00 0.05 0.05 54 1026.4
20240220042215 26 49 0.0 1.0 0.00 0.05 0.05 54 1026.2
20240220041215 27 58 0.0 1.0 0.00 0.05 0.05 54 1026.2
20240220040235 27 0.0 0.0 0.00 0.05 0.05 54 1026.1
20240220035215 27 75 0.0 2.0 0.00 0.05 0.05 53 1026.0
20240220034217 27 355 0.0 1.0 0.00 0.05 0.05 52 1025.8
20240220033216 27 0.0 1.0 0.00 0.05 0.05 52 1025.8
20240220032215 27 28 0.0 2.0 0.00 0.05 0.05 51 1025.6
20240220031215 28 0.0 2.0 0.00 0.05 0.05 51 1025.6
20240220030215 28 1 0.0 2.0 0.00 0.05 0.05 51 1025.4
20240220025215 28 40 0.0 1.0 0.00 0.05 0.05 52 1025.3
20240220024215 28 324 0.0 1.0 0.00 0.05 0.05 51 1025.3
20240220023235 28 0.0 0.0 0.00 0.05 0.05 50 1025.2
20240220022235 28 31 0.0 1.0 0.00 0.05 0.05 50 1025.0
20240220021236 28 0.0 1.0 0.00 0.05 0.05 49 1024.8
20240220020215 29 0.0 1.0 0.00 0.05 0.05 49 1024.7
20240220015215 29 0.0 1.0 0.00 0.05 0.05 47 1024.6
20240220014215 29 0.0 0.0 0.00 0.05 0.05 47 1024.5
20240220013215 29 0.0 2.0 0.00 0.05 0.05 47 1024.3
20240220012215 29 0.0 0.0 0.00 0.05 0.05 46 1024.2
20240220011215 30 5 0.0 1.0 0.00 0.05 0.05 46 1024.0
20240220010215 30 324 0.0 1.0 0.00 0.05 0.05 46 1023.9
20240220005215 30 9 0.0 1.0 0.00 0.05 0.05 45 1023.7
20240220004215 30 324 0.0 1.0 0.00 0.05 0.05 44 1023.6
20240220003215 30 357 0.0 1.0 0.00 0.05 0.05 46 1023.4
20240220002257 30 0.0 1.0 0.00 0.05 0.05 45 1023.3
20240220001217 30 0.0 0.0 0.00 0.05 0.05 43 1023.1
20240220000219 31 0.0 1.0 0.00 0.05 0.05 43 1023.1
20240219235217 31 23 0.0 1.0 0.00 0.05 0.05 43 1022.9
20240219234217 31 0.0 1.0 0.00 0.05 0.05 43 1022.7
20240219233217 32 0.0 0.0 0.00 0.05 0.05 42 1022.6
20240219232217 32 0.0 0.0 0.00 0.05 0.05 41 1022.4
20240219231237 32 0.0 0.0 0.00 0.05 0.05 40 1022.1
20240219230237 32 0.0 0.0 0.00 0.05 0.05 41 1021.9
20240219225916 32 0.0 0.0 0.00 0.05 0.05 40 1021.8
20240219224915 32 0.0 0.0 0.00 0.05 0.05 40 1021.6
20240219223938 33 0.0 0.0 0.00 0.05 0.05 41 1021.4
20240219222916 33 0.0 0.0 0.00 0.05 0.05 40 1021.3
20240219221916 33 0.0 0.0 0.00 0.05 0.05 39 1021.2
20240219220936 34 0.0 0.0 0.00 0.05 0.05 39 1021.1
20240219215915 34 0.0 1.0 0.00 0.05 0.05 40 1020.9
20240219214938 35 350 0.0 1.0 0.00 0.05 0.05 38 1020.8
20240219213916 35 43 0.0 1.0 0.00 0.05 0.05 39 1020.6
20240219212916 35 304 0.0 3.0 0.00 0.05 0.05 40 1020.4
20240219211916 35 0.0 1.0 0.00 0.05 0.05 40 1020.2